sat.trackr.live / text

‹ back to catalog

CHUANGXIN 1-02 (CX-1-02)

NORAD 33434 · 2008-056B

PAYLOAD ACTIVE UNKNOWN

§ Identity

Operator
Country
PRC
Launch date
2008-11-05
Launch site
JSC
Launch vehicle
Mass (kg)
RCS (m²)
0.54

External: N2YO · Heavens-Above · Gunter

§ Orbital elements

Epoch: 2026-05-25T03:21:24.560640Z

Period
100.69 min
Inclination
98.6151°
Eccentricity
0.0013663
Mean motion
14.30147208 rev/d
Perigee alt
781.4 km
Apogee alt
801.0 km
Semi-major
7,169.4 km
B*
-9.8315e-6
RAAN
171.6358°
Arg perigee
203.7811°
Mean anomaly
156.2741°
Rev number
91,532

§ Raw data

CHUANGXIN 1-02 (CX-1-02)1 33434U 08056B   26145.13986760 -.00000069  00000+0 -98315-5 0  99912 33434  98.6151 171.6358 0013663 203.7811 156.2741 14.30147208915327

JSON: /api/v1/satellites/33434 · /tle

For live sub-satellite position, see the globe view (requires WebGL).

§ Visibility from observer

Set your observer location to see the next 7 days of passes ≥ 10°. The values pass through the URL so the page stays shareable.

No JS? Fill the form by hand. The geolocation button needs JavaScript.

§ Radio — SatNOGS DB

ModeDescriptionDownlinkUplink
FM S-band telemetry 2.250 GHz

1 transmitter · refreshed weekly from db.satnogs.org